Time,TemperatureF,DewpointF,PressureIn,WindDirection,WindDirectionDegrees,WindSpeedMPH,WindSpeedGustMPH,Humidity,HourlyPrecipIn,Conditions,Clouds,dailyrainin,SoftwareType,DateUTC
2013-07-09 00:02:00,72.0,68.0,29.93,South,180,0.0,0.0,88,0.00,,,0.04,,2013-07-09 04:02:00,
2013-07-09 00:11:00,72.0,68.0,29.93,South,180,0.0,0.0,88,0.00,,,0.04,,2013-07-09 04:11:00,
2013-07-09 00:22:00,72.0,68.0,29.93,South,180,0.0,0.0,88,0.00,,,0.04,,2013-07-09 04:22:00,
2013-07-09 00:43:00,72.0,68.0,29.93,South,180,0.0,0.0,88,0.00,,,0.04,,2013-07-09 04:43:00,
2013-07-09 00:53:00,71.0,67.0,29.93,South,180,0.0,0.0,88,0.00,,,0.04,,2013-07-09 04:53:00,
2013-07-09 01:02:00,71.0,67.0,29.93,South,180,0.0,0.0,88,0.00,,,0.04,,2013-07-09 05:02:00,
2013-07-09 01:11:00,71.0,67.0,29.93,South,180,0.0,0.0,88,0.00,,,0.04,,2013-07-09 05:11:00,
2013-07-09 01:33:00,71.0,68.0,29.93,South,180,0.0,0.0,89,0.00,,,0.04,,2013-07-09 05:33:00,
2013-07-09 01:42:00,71.0,68.0,29.93,South,180,0.0,0.0,89,0.00,,,0.04,,2013-07-09 05:42:00,
2013-07-09 02:01:00,71.0,68.0,29.93,South,180,0.0,0.0,89,0.00,,,0.04,,2013-07-09 06:01:00,
2013-07-09 02:11:00,71.0,68.0,29.94,South,180,0.0,0.0,89,0.00,,,0.04,,2013-07-09 06:11:00,
2013-07-09 02:22:00,71.0,68.0,29.93,South,180,0.0,0.0,89,0.00,,,0.04,,2013-07-09 06:22:00,
2013-07-09 02:43:00,71.0,68.0,29.93,South,180,0.0,0.0,89,0.00,,,0.04,,2013-07-09 06:43:00,
2013-07-09 02:53:00,71.0,68.0,29.92,South,180,0.0,0.0,89,0.00,,,0.04,,2013-07-09 06:53:00,
2013-07-09 03:02:00,70.0,67.0,29.93,South,180,0.0,0.0,89,0.00,,,0.04,,2013-07-09 07:02:00,
2013-07-09 03:12:00,70.0,67.0,29.93,South,180,0.0,0.0,91,0.00,,,0.04,,2013-07-09 07:12:00,
2013-07-09 03:22:00,70.0,69.0,29.93,South,180,0.0,0.0,96,0.00,,,0.04,,2013-07-09 07:22:00,
2013-07-09 03:34:00,70.0,69.0,29.92,South,180,0.0,0.0,96,0.00,,,0.04,,2013-07-09 07:34:00,
2013-07-09 03:43:00,70.0,69.0,29.92,South,180,0.0,0.0,96,0.00,,,0.04,,2013-07-09 07:43:00,
2013-07-09 03:53:00,70.0,69.0,29.93,South,180,0.0,0.0,96,0.00,,,0.04,,2013-07-09 07:53:00,
2013-07-09 04:01:00,70.0,67.0,29.93,South,180,0.0,0.0,89,0.00,,,0.04,,2013-07-09 08:01:00,
2013-07-09 04:22:00,69.0,66.0,29.94,South,180,0.0,0.0,89,0.00,,,0.04,,2013-07-09 08:22:00,
2013-07-09 04:33:00,69.0,68.0,29.93,South,180,0.0,0.0,96,0.00,,,0.04,,2013-07-09 08:33:00,
2013-07-09 04:43:00,69.0,68.0,29.93,South,180,0.0,0.0,96,0.00,,,0.04,,2013-07-09 08:43:00,
2013-07-09 04:52:00,69.0,68.0,29.94,South,180,0.0,0.0,96,0.00,,,0.04,,2013-07-09 08:52:00,
2013-07-09 05:02:00,69.0,68.0,29.93,South,180,0.0,0.0,96,0.00,,,0.04,,2013-07-09 09:02:00,
2013-07-09 05:12:00,69.0,68.0,29.93,South,180,0.0,0.0,96,0.00,,,0.04,,2013-07-09 09:12:00,
2013-07-09 05:42:00,69.0,68.0,29.93,South,180,0.0,0.0,96,0.00,,,0.04,,2013-07-09 09:42:00,
2013-07-09 06:33:00,69.0,66.0,29.93,NW,315,0.0,0.0,91,0.00,,,0.04,,2013-07-09 10:33:00,
2013-07-09 06:42:00,69.0,66.0,29.94,NNW,338,0.0,0.0,91,0.00,,,0.04,,2013-07-09 10:42:00,
2013-07-09 06:52:00,69.0,66.0,29.94,NNW,338,0.0,0.0,91,0.00,,,0.04,,2013-07-09 10:52:00,
2013-07-09 07:53:00,70.0,67.0,29.94,WNW,293,0.0,0.0,91,0.00,,,0.04,,2013-07-09 11:53:00,
2013-07-09 08:33:00,71.0,68.0,29.94,WNW,293,0.0,0.0,91,0.00,,,0.04,,2013-07-09 12:33:00,
2013-07-09 08:43:00,72.0,69.0,29.94,NW,315,0.0,0.0,91,0.00,,,0.04,,2013-07-09 12:43:00,
2013-07-09 08:52:00,74.0,71.0,29.94,North,0,0.0,0.0,91,0.00,,,0.04,,2013-07-09 12:52:00,
2013-07-09 09:11:00,74.0,71.0,29.94,NNW,338,0.0,0.0,89,0.00,,,0.04,,2013-07-09 13:11:00,
2013-07-09 09:43:00,76.0,71.0,29.94,NNW,338,0.0,0.0,84,0.00,,,0.04,,2013-07-09 13:43:00,
2013-07-09 09:53:00,76.0,71.0,29.94,NW,315,0.0,0.0,84,0.00,,,0.04,,2013-07-09 13:53:00,
2013-07-09 10:01:00,76.0,71.0,29.94,WSW,248,0.0,0.0,84,0.00,,,0.04,,2013-07-09 14:01:00,
2013-07-09 10:34:00,77.0,71.0,29.94,WNW,293,0.0,0.0,82,0.00,,,0.04,,2013-07-09 14:34:00,
2013-07-09 10:43:00,78.0,71.0,29.94,West,270,0.0,0.0,80,0.00,,,0.04,,2013-07-09 14:43:00,
2013-07-09 10:53:00,77.0,70.0,29.94,SSW,203,0.0,0.0,80,0.00,,,0.04,,2013-07-09 14:53:00,
2013-07-09 14:32:00,86.0,74.0,29.92,SW,225,0.0,0.0,68,0.00,,,0.04,,2013-07-09 18:32:00,
2013-07-09 14:43:00,86.0,74.0,29.91,NW,315,0.0,5.0,67,0.00,,,0.04,,2013-07-09 18:43:00,
2013-07-09 14:52:00,86.0,73.0,29.91,WSW,248,0.0,0.0,66,0.00,,,0.04,,2013-07-09 18:52:00,
2013-07-09 15:52:00,88.0,74.0,29.88,WNW,293,0.0,0.0,63,0.00,,,0.04,,2013-07-09 19:52:00,
2013-07-09 16:01:00,88.0,74.0,29.88,WSW,248,0.0,0.0,63,0.00,,,0.04,,2013-07-09 20:01:00,
2013-07-09 16:43:00,89.0,75.0,29.87,SSW,203,2.0,3.0,63,0.00,,,0.04,,2013-07-09 20:43:00,
2013-07-09 16:52:00,88.0,73.0,29.86,SW,225,0.0,0.0,61,0.00,,,0.04,,2013-07-09 20:52:00,
2013-07-09 17:01:00,88.0,73.0,29.86,SW,225,0.0,0.0,61,0.00,,,0.04,,2013-07-09 21:01:00,
2013-07-09 17:11:00,88.0,74.0,29.85,WSW,248,0.0,0.0,63,0.00,,,0.04,,2013-07-09 21:11:00,
2013-07-09 17:22:00,89.0,75.0,29.85,West,270,0.0,0.0,63,0.00,,,0.02,,2013-07-09 21:22:00,
2013-07-09 17:32:00,89.0,75.0,29.85,West,270,0.0,0.0,63,0.00,,,0.02,,2013-07-09 21:32:00,
2013-07-09 17:42:00,89.0,74.0,29.85,SSW,203,0.0,0.0,62,0.00,,,0.02,,2013-07-09 21:42:00,
2013-07-09 17:52:00,87.0,72.0,29.84,SW,225,0.0,0.0,62,0.00,,,0.02,,2013-07-09 21:52:00,
2013-07-09 18:01:00,87.0,72.0,29.84,SW,225,0.0,0.0,62,0.00,,,0.02,,2013-07-09 22:01:00,
2013-07-09 18:11:00,86.0,72.0,29.84,WSW,248,0.0,0.0,64,0.00,,,0.02,,2013-07-09 22:11:00,
2013-07-09 18:22:00,86.0,73.0,29.83,SSW,203,0.0,0.0,65,0.00,,,0.02,,2013-07-09 22:22:00,
2013-07-09 18:33:00,86.0,73.0,29.83,SSW,203,0.0,0.0,65,0.00,,,0.02,,2013-07-09 22:33:00,
2013-07-09 18:42:00,86.0,73.0,29.83,South,180,0.0,0.0,65,0.00,,,0.02,,2013-07-09 22:42:00,
2013-07-09 18:53:00,85.0,72.0,29.83,SSE,158,0.0,0.0,66,0.00,,,0.00,,2013-07-09 22:53:00,
2013-07-09 19:02:00,85.0,72.0,29.83,SSE,158,0.0,0.0,66,0.00,,,0.00,,2013-07-09 23:02:00,
2013-07-09 19:12:00,84.0,72.0,29.83,SSE,158,0.0,0.0,67,0.00,,,0.00,,2013-07-09 23:12:00,
2013-07-09 19:22:00,83.0,71.0,29.83,SSE,158,0.0,0.0,68,0.00,,,0.00,,2013-07-09 23:22:00,
2013-07-09 19:33:00,83.0,72.0,29.83,SSE,158,0.0,0.0,69,0.00,,,0.00,,2013-07-09 23:33:00,
2013-07-09 19:43:00,83.0,72.0,29.83,SSE,158,0.0,0.0,69,0.00,,,0.00,,2013-07-09 23:43:00,
2013-07-09 19:53:00,81.0,71.0,29.84,SSW,203,0.0,0.0,72,0.04,,,0.04,,2013-07-09 23:53:00,
2013-07-09 20:01:00,79.0,70.0,29.83,WSW,248,0.0,0.0,75,0.06,,,0.06,,2013-07-10 00:01:00,
2013-07-09 20:11:00,79.0,70.0,29.83,WSW,248,0.0,0.0,75,0.06,,,0.06,,2013-07-10 00:11:00,
2013-07-09 20:22:00,78.0,71.0,29.83,SSE,158,0.0,0.0,79,0.06,,,0.06,,2013-07-10 00:22:00,
2013-07-09 20:33:00,77.0,71.0,29.82,South,180,0.0,1.0,81,0.06,,,0.06,,2013-07-10 00:33:00,
2013-07-09 20:42:00,77.0,71.0,29.81,South,180,0.0,0.0,82,0.06,,,0.06,,2013-07-10 00:42:00,
2013-07-09 20:52:00,76.0,70.0,29.81,SSE,158,0.0,0.0,82,0.02,,,0.06,,2013-07-10 00:52:00,
2013-07-09 21:11:00,75.0,69.0,29.81,SSW,203,0.0,0.0,82,0.00,,,0.06,,2013-07-10 01:11:00,
2013-07-09 21:22:00,74.0,68.0,29.81,WSW,248,0.0,0.0,83,0.00,,,0.06,,2013-07-10 01:22:00,
2013-07-09 21:52:00,74.0,69.0,29.80,WSW,248,0.0,0.0,85,0.00,,,0.06,,2013-07-10 01:52:00,
2013-07-09 22:43:00,74.0,70.0,29.81,SSW,203,0.0,0.0,86,0.00,,,0.06,,2013-07-10 02:43:00,
2013-07-09 23:43:00,73.0,69.0,29.82,WSW,248,0.0,0.0,87,0.00,,,0.06,,2013-07-10 03:43:00,
2013-07-09 23:52:00,73.0,69.0,29.82,SSW,203,0.0,0.0,88,0.00,,,0.06,,2013-07-10 03:52:00,